User: anonymous   Login
Location: Newark
(49.3000°N, 9.4667°E)
Time: 20:30:28
(UTC+00:00)
Language:

Transit 2A - Orbit

View from above orbital plane
View from above orbital plane
View from above satellite
View from above satellite

Ground track
Ground track

The orbit data is extracted from the following two-line orbital elements,

1    45U 60007A   19140.85128483 -.00000067 +00000-0 +10615-4 0  9997
2    45 066.6946 338.1088 0262327 242.9176 114.4942 14.33637246009410
Epoch (UTC): 20 May 2019 20:25:51
Eccentricity: 0.0262327
inclination: 66.6946°
perigee height: 592 km
apogee height: 967 km
right ascension of ascending node: 338.1088°
argument of perigee: 242.9176°
revolutions per day: 14.33637246
mean anomaly at epoch: 114.4942°
orbit number at epoch: 941

The dashed part of the orbit path shows where the satellite is in the earth's shadow,  

DLR